Terminal Aerodrome Forecast
Issued by NWS

Home | Current Version | Previous Version | Text Only | Print | Product List | Glossary On
Versions: 1 2 3 4 5 6 7 8 9 10 11 12 13 14 15 16 17 18 19 20 21 22 23 24 25 26 27 28
095
FTUS45 KGJT 260526
TAFASE
TAF
KASE 260526Z 2606/2706 20005KT P6SM SCT150 BKN200
     FM261500 01004KT P6SM SCT200
     FM261900 33008G17KT P6SM SCT120 BKN250
     FM270200 22005KT P6SM SCT200=

USA.gov is the U.S. government's official web portal to all federal, state and local government web resources and services.